contact:dominique.lefevre@mio.osupytheas.fr, maurice.libes@osupytheas.fr, didier.mallarino@osupytheas.fr
Project:EMSO http://www.emso-fr.org/EMSO-France
Depth: 2436.0 m
Title:EMSO Ligure Ouest : Data MII capteur CSTAR
DateTime,Latitude,Longitude,Instrument_Serial,Reference_Counts,Signal_Counts,Corrected_Signal_raw_counts,Calculated_Beam_c_inverse_meters,Internal_thermistor_counts
DateTime,Latitude,Longitude,Instrument_Serial,Reference_Counts,Signal_Counts,Corrected_Signal_raw_counts,Calculated_Beam_c_inverse_meters,Internal_thermistor_counts
2023-03-23T00:01:00,42.805,6.029,CST-1368DR,4345,4747,11605,01.187,551
2023-03-23T00:04:02,42.805,6.029,CST-1368DR,4345,4746,11601,01.189,551
2023-03-23T00:07:03,42.805,6.029,CST-1368DR,4345,4742,11591,01.192,551
2023-03-23T00:10:05,42.805,6.029,CST-1368DR,4345,4737,11580,01.196,551
2023-03-23T00:13:07,42.805,6.029,CST-1368DR,4345,4746,11602,01.188,551
2023-03-23T00:16:08,42.805,6.029,CST-1368DR,4345,4742,11592,01.192,551
2023-03-23T00:19:10,42.805,6.029,CST-1368DR,4345,4749,11608,01.186,552
2023-03-23T13:55:07,42.805,6.029,CST-1368DR,4353,4767,11632,01.178,552
2023-03-23T13:58:08,42.805,6.029,CST-1368DR,4354,4767,11630,01.179,551
2023-03-23T14:01:10,42.805,6.029,CST-1368DR,4354,4770,11637,01.176,551
2023-03-23T14:04:11,42.805,6.029,CST-1368DR,4354,4765,11626,01.180,551
2023-03-23T14:07:13,42.805,6.029,CST-1368DR,4354,4771,11640,01.175,551
2023-03-23T14:10:15,42.805,6.029,CST-1368DR,4354,4767,11630,01.179,552
2023-03-23T14:13:16,42.805,6.029,CST-1368DR,4354,4776,11651,01.172,551
2023-03-23T14:16:18,42.805,6.029,CST-1368DR,4354,4771,11640,01.175,551
2023-03-23T14:19:19,42.805,6.029,CST-1368DR,4354,4767,11630,01.179,551
2023-03-23T14:22:21,42.805,6.029,CST-1368DR,4354,4767,11629,01.179,551
2023-03-23T14:25:22,42.805,6.029,CST-1368DR,4354,4772,11643,01.174,551
2023-03-23T14:28:24,42.805,6.029,CST-1368DR,4354,4769,11635,01.177,551
2023-03-23T14:31:26,42.805,6.029,CST-1368DR,4354,4764,11621,01.182,551
2023-03-23T14:34:27,42.805,6.029,CST-1368DR,4354,4763,11621,01.182,551
2023-03-23T14:37:29,42.805,6.029,CST-1368DR,4354,4763,11619,01.183,551
2023-03-23T14:40:30,42.805,6.029,CST-1368DR,4354,4766,11628,01.180,551
2023-03-23T14:43:32,42.805,6.029,CST-1368DR,4353,4765,11628,01.180,551
2023-03-23T14:46:34,42.805,6.029,CST-1368DR,4353,4770,11638,01.176,551
2023-03-23T14:49:35,42.805,6.029,CST-1368DR,4353,4769,11638,01.176,551
2023-03-23T14:52:37,42.805,6.029,CST-1368DR,4353,4764,11624,01.181,551
2023-03-23T14:55:38,42.805,6.029,CST-1368DR,4353,4763,11623,01.181,551
2023-03-23T14:58:40,42.805,6.029,CST-1368DR,4353,4762,11620,01.182,551
2023-03-23T15:01:41,42.805,6.029,CST-1368DR,4353,4765,11628,01.180,551
2023-03-23T15:04:43,42.805,6.029,CST-1368DR,4353,4766,11629,01.179,551
2023-03-23T15:07:45,42.805,6.029,CST-1368DR,4353,4769,11636,01.177,551
2023-03-23T15:10:46,42.805,6.029,CST-1368DR,4353,4766,11630,01.179,551
2023-03-23T15:13:48,42.805,6.029,CST-1368DR,4353,4771,11643,01.174,551
2023-03-23T15:16:49,42.805,6.029,CST-1368DR,4353,4771,11642,01.175,551
2023-03-23T15:19:51,42.805,6.029,CST-1368DR,4353,4766,11629,01.179,551
2023-03-23T15:22:52,42.805,6.029,CST-1368DR,4353,4766,11629,01.179,551
2023-03-23T15:25:54,42.805,6.029,CST-1368DR,4352,4761,11620,01.182,551
2023-03-23T15:28:56,42.805,6.029,CST-1368DR,4352,4752,11598,01.190,551
2023-03-23T15:31:57,42.805,6.029,CST-1368DR,4352,4761,11621,01.182,551
2023-03-23T15:34:59,42.805,6.029,CST-1368DR,4352,4767,11634,01.177,551
2023-03-23T15:38:00,42.805,6.029,CST-1368DR,4352,4769,11640,01.175,551
2023-03-23T15:41:02,42.805,6.029,CST-1368DR,4352,4765,11629,01.179,551
2023-03-23T15:44:04,42.805,6.029,CST-1368DR,4352,4772,11647,01.173,551
2023-03-23T15:47:05,42.805,6.029,CST-1368DR,4352,4785,11678,01.162,551
2023-03-23T15:50:07,42.805,6.029,CST-1368DR,4352,4774,11651,01.172,551
2023-03-23T15:53:08,42.805,6.029,CST-1368DR,4352,4767,11635,01.177,551
2023-03-23T15:56:10,42.805,6.029,CST-1368DR,4352,4768,11637,01.176,551
2023-03-23T15:59:11,42.805,6.029,CST-1368DR,4352,4771,11645,01.174,551
2023-03-23T16:02:13,42.805,6.029,CST-1368DR,4352,4768,11637,01.176,551
2023-03-23T16:05:15,42.805,6.029,CST-1368DR,4352,4768,11636,01.177,551
2023-03-23T16:08:16,42.805,6.029,CST-1368DR,4352,4769,11639,01.176,551
2023-03-23T16:11:18,42.805,6.029,CST-1368DR,4351,4767,11638,01.176,551
2023-03-23T16:14:19,42.805,6.029,CST-1368DR,4351,4767,11636,01.177,551
2023-03-23T16:17:21,42.805,6.029,CST-1368DR,4351,4768,11639,01.176,551
2023-03-23T16:20:22,42.805,6.029,CST-1368DR,4351,4769,11642,01.175,551
2023-03-23T16:23:24,42.805,6.029,CST-1368DR,4351,4766,11634,01.177,551
2023-03-23T16:26:26,42.805,6.029,CST-1368DR,4351,4768,11639,01.176,551
2023-03-23T16:29:27,42.805,6.029,CST-1368DR,4351,4767,11636,01.177,551
2023-03-23T16:32:29,42.805,6.029,CST-1368DR,4351,4767,11637,01.176,551
2023-03-23T16:35:30,42.805,6.029,CST-1368DR,4351,4770,11644,01.174,551
2023-03-23T16:38:32,42.805,6.029,CST-1368DR,4351,4766,11634,01.177,551
2023-03-23T16:41:34,42.805,6.029,CST-1368DR,4351,4766,11634,01.177,551
2023-03-23T16:44:35,42.805,6.029,CST-1368DR,4351,4769,11641,01.175,551
2023-03-23T16:47:37,42.805,6.029,CST-1368DR,4351,4769,11642,01.175,551
2023-03-23T16:50:38,42.805,6.029,CST-1368DR,4351,4758,11616,01.184,551
2023-03-23T16:53:40,42.805,6.029,CST-1368DR,4351,4768,11639,01.176,551
2023-03-23T16:56:41,42.805,6.029,CST-1368DR,4351,4769,11642,01.175,551
2023-03-23T16:59:43,42.805,6.029,CST-1368DR,4351,4769,11641,01.175,551
2023-03-23T17:02:45,42.805,6.029,CST-1368DR,4351,4767,11637,01.176,551
2023-03-23T17:05:46,42.805,6.029,CST-1368DR,4351,4769,11643,01.174,551
2023-03-23T17:08:48,42.805,6.029,CST-1368DR,4351,4771,11648,01.173,551
2023-03-23T17:11:49,42.805,6.029,CST-1368DR,4351,4770,11645,01.174,551
2023-03-23T17:14:51,42.805,6.029,CST-1368DR,4351,4772,11649,01.172,551
2023-03-23T17:17:52,42.805,6.029,CST-1368DR,4351,4770,11644,01.174,551
2023-03-23T17:20:54,42.805,6.029,CST-1368DR,4350,4769,11645,01.174,551
2023-03-23T17:23:56,42.805,6.029,CST-1368DR,4351,4769,11643,01.174,551
2023-03-23T17:26:57,42.805,6.029,CST-1368DR,4350,4771,11649,01.172,551
2023-03-23T17:29:59,42.805,6.029,CST-1368DR,4350,4766,11637,01.176,551
2023-03-23T17:33:01,42.805,6.029,CST-1368DR,4350,4770,11646,01.173,551
2023-03-23T17:36:03,42.805,6.029,CST-1368DR,4350,4771,11650,01.172,551
2023-03-23T17:39:04,42.805,6.029,CST-1368DR,4350,4769,11645,01.174,551
2023-03-23T17:42:06,42.805,6.029,CST-1368DR,4350,4769,11644,01.174,551
2023-03-23T17:45:08,42.805,6.029,CST-1368DR,4350,4764,11633,01.178,551
2023-03-23T17:48:09,42.805,6.029,CST-1368DR,4350,4769,11645,01.174,551
2023-03-23T17:51:11,42.805,6.029,CST-1368DR,4350,4763,11631,01.178,551
2023-03-23T17:54:12,42.805,6.029,CST-1368DR,4350,4766,11637,01.176,551
2023-03-23T17:57:14,42.805,6.029,CST-1368DR,4350,4768,11643,01.174,552
2023-03-23T18:00:15,42.805,6.029,CST-1368DR,4350,4770,11647,01.173,551
2023-03-23T18:03:17,42.805,6.029,CST-1368DR,4350,4769,11644,01.174,552
2023-03-23T18:06:19,42.805,6.029,CST-1368DR,4350,4770,11648,01.173,551
2023-03-23T18:09:20,42.805,6.029,CST-1368DR,4350,4770,11648,01.173,551
2023-03-23T18:12:22,42.805,6.029,CST-1368DR,4350,4771,11649,01.172,551
2023-03-23T18:15:23,42.805,6.029,CST-1368DR,4350,4771,11649,01.172,551
2023-03-23T18:18:25,42.805,6.029,CST-1368DR,4350,4770,11647,01.173,551
2023-03-23T18:21:26,42.805,6.029,CST-1368DR,4350,4770,11647,01.173,551
2023-03-23T18:24:28,42.805,6.029,CST-1368DR,4350,4773,11653,01.171,551
2023-03-23T18:27:30,42.805,6.029,CST-1368DR,4350,4770,11648,01.173,551
2023-03-23T18:30:31,42.805,6.029,CST-1368DR,4350,4769,11645,01.174,551
2023-03-23T18:33:33,42.805,6.029,CST-1368DR,4350,4772,11653,01.171,551
2023-03-23T18:36:34,42.805,6.029,CST-1368DR,4350,4771,11650,01.172,551
2023-03-23T18:39:36,42.805,6.029,CST-1368DR,4350,4772,11652,01.171,551
2023-03-23T18:42:38,42.805,6.029,CST-1368DR,4350,4770,11648,01.173,551
2023-03-23T18:45:39,42.805,6.029,CST-1368DR,4350,4771,11649,01.172,551
2023-03-23T18:48:41,42.805,6.029,CST-1368DR,4350,4773,11654,01.171,551
2023-03-23T18:51:42,42.805,6.029,CST-1368DR,4350,4769,11645,01.174,551
2023-03-23T18:54:44,42.805,6.029,CST-1368DR,4350,4772,11652,01.171,551
2023-03-23T18:57:45,42.805,6.029,CST-1368DR,4350,4772,11653,01.171,551
2023-03-23T19:00:47,42.805,6.029,CST-1368DR,4349,4765,11638,01.176,551
2023-03-23T19:03:49,42.805,6.029,CST-1368DR,4349,4771,11652,01.171,551
2023-03-23T19:06:50,42.805,6.029,CST-1368DR,4350,4771,11649,01.172,551
2023-03-23T19:09:52,42.805,6.029,CST-1368DR,4349,4767,11642,01.175,551
2023-03-23T19:12:53,42.805,6.029,CST-1368DR,4350,4774,11657,01.170,551
2023-03-23T19:15:55,42.805,6.029,CST-1368DR,4349,4769,11648,01.173,551
2023-03-23T19:18:56,42.805,6.029,CST-1368DR,4349,4772,11655,01.170,551
2023-03-23T19:21:58,42.805,6.029,CST-1368DR,4349,4769,11648,01.173,551
2023-03-23T19:25:00,42.805,6.029,CST-1368DR,4349,4774,11660,01.169,551
2023-03-23T19:28:01,42.805,6.029,CST-1368DR,4349,4763,11632,01.178,551
2023-03-23T19:31:03,42.805,6.029,CST-1368DR,4349,4765,11637,01.176,551
2023-03-23T19:34:04,42.805,6.029,CST-1368DR,4349,4771,11651,01.172,551
2023-03-23T19:37:06,42.805,6.029,CST-1368DR,4349,4769,11648,01.173,551
2023-03-23T19:40:08,42.805,6.029,CST-1368DR,4349,4775,11662,01.168,551
2023-03-23T19:43:09,42.805,6.029,CST-1368DR,4349,4771,11652,01.171,551
2023-03-23T19:46:11,42.805,6.029,CST-1368DR,4349,4772,11655,01.170,551
2023-03-23T19:49:12,42.805,6.029,CST-1368DR,4349,4770,11650,01.172,551
2023-03-23T19:52:14,42.805,6.029,CST-1368DR,4349,4777,11666,01.166,551
2023-03-23T19:55:15,42.805,6.029,CST-1368DR,4349,4774,11660,01.169,551
2023-03-23T19:58:17,42.805,6.029,CST-1368DR,4349,4774,11660,01.169,551
2023-03-23T20:01:19,42.805,6.029,CST-1368DR,4349,4773,11657,01.170,551
2023-03-23T20:04:20,42.805,6.029,CST-1368DR,4349,4771,11652,01.171,551
2023-03-23T20:07:22,42.805,6.029,CST-1368DR,4349,4767,11642,01.175,551
2023-03-23T20:10:23,42.805,6.029,CST-1368DR,4349,4760,11626,01.180,551
2023-03-23T20:13:25,42.805,6.029,CST-1368DR,4349,4771,11653,01.171,551
2023-03-23T20:16:27,42.805,6.029,CST-1368DR,4349,4769,11648,01.173,551
2023-03-23T20:19:28,42.805,6.029,CST-1368DR,4349,4769,11648,01.173,551
2023-03-23T20:22:30,42.805,6.029,CST-1368DR,4349,4770,11650,01.172,551
2023-03-23T20:25:31,42.805,6.029,CST-1368DR,4349,4768,11645,01.174,551
2023-03-23T20:28:33,42.805,6.029,CST-1368DR,4349,4757,11618,01.183,551
2023-03-23T20:31:34,42.805,6.029,CST-1368DR,4349,4770,11651,01.172,551
2023-03-23T20:34:36,42.805,6.029,CST-1368DR,4349,4770,11651,01.172,551
2023-03-23T20:37:38,42.805,6.029,CST-1368DR,4349,4763,11632,01.178,551
2023-03-23T20:40:39,42.805,6.029,CST-1368DR,4349,4770,11651,01.172,551
2023-03-23T20:43:41,42.805,6.029,CST-1368DR,4349,4769,11648,01.173,551
2023-03-23T20:46:42,42.805,6.029,CST-1368DR,4349,4769,11646,01.173,551
2023-03-23T20:49:44,42.805,6.029,CST-1368DR,4349,4767,11642,01.175,551
2023-03-23T20:52:45,42.805,6.029,CST-1368DR,4349,4777,11666,01.166,552
2023-03-23T20:55:47,42.805,6.029,CST-1368DR,4349,4764,11634,01.177,551
2023-03-23T20:58:49,42.805,6.029,CST-1368DR,4349,4759,11622,01.182,551
2023-03-23T21:01:50,42.805,6.029,CST-1368DR,4349,4758,11620,01.182,551
2023-03-23T21:04:52,42.805,6.029,CST-1368DR,4349,4767,11643,01.174,551
2023-03-23T21:07:53,42.805,6.029,CST-1368DR,4348,4754,11612,01.185,551
2023-03-23T21:10:55,42.805,6.029,CST-1368DR,4349,4768,11645,01.174,551
2023-03-23T21:13:56,42.805,6.029,CST-1368DR,4348,4767,11645,01.174,551
2023-03-23T21:16:58,42.805,6.029,CST-1368DR,4349,4767,11643,01.174,551
2023-03-23T21:20:00,42.805,6.029,CST-1368DR,4349,4765,11637,01.176,551
2023-03-23T21:23:01,42.805,6.029,CST-1368DR,4348,4768,11648,01.173,551
2023-03-23T21:26:03,42.805,6.029,CST-1368DR,4348,4768,11646,01.173,551
2023-03-23T21:29:04,42.805,6.029,CST-1368DR,4349,4761,11629,01.179,551
2023-03-23T21:32:06,42.805,6.029,CST-1368DR,4348,4761,11630,01.179,551
2023-03-23T21:35:08,42.805,6.029,CST-1368DR,4348,4768,11647,01.173,551
2023-03-23T21:38:09,42.805,6.029,CST-1368DR,4348,4764,11637,01.176,551
2023-03-23T21:41:11,42.805,6.029,CST-1368DR,4348,4760,11627,01.180,551
2023-03-23T21:44:12,42.805,6.029,CST-1368DR,4348,4752,11609,01.186,551
2023-03-23T21:47:14,42.805,6.029,CST-1368DR,4348,4763,11634,01.177,551
2023-03-23T21:50:15,42.805,6.029,CST-1368DR,4348,4753,11610,01.186,551
2023-03-23T21:53:17,42.805,6.029,CST-1368DR,4348,4766,11643,01.174,551
2023-03-23T21:56:19,42.805,6.029,CST-1368DR,4348,4755,11616,01.184,551
2023-03-23T21:59:20,42.805,6.029,CST-1368DR,4348,4763,11635,01.177,551
2023-03-23T22:02:22,42.805,6.029,CST-1368DR,4348,4763,11635,01.177,551
2023-03-23T22:05:23,42.805,6.029,CST-1368DR,4348,4763,11635,01.177,551
2023-03-23T22:08:25,42.805,6.029,CST-1368DR,4348,4754,11613,01.185,551
2023-03-23T22:11:27,42.805,6.029,CST-1368DR,4348,4768,11648,01.173,551
2023-03-23T22:14:28,42.805,6.029,CST-1368DR,4348,4774,11662,01.168,551
2023-03-23T22:17:30,42.805,6.029,CST-1368DR,4348,4763,11635,01.177,551
2023-03-23T22:20:31,42.805,6.029,CST-1368DR,4348,4756,11618,01.183,551
2023-03-23T22:23:33,42.805,6.029,CST-1368DR,4348,4757,11621,01.182,551
2023-03-23T22:26:34,42.805,6.029,CST-1368DR,4348,4756,11618,01.183,551
2023-03-23T22:29:36,42.805,6.029,CST-1368DR,4348,4759,11626,01.180,551
2023-03-23T22:32:38,42.805,6.029,CST-1368DR,4348,4761,11631,01.178,551
2023-03-23T22:35:39,42.805,6.029,CST-1368DR,4348,4758,11624,01.181,551
2023-03-23T22:38:41,42.805,6.029,CST-1368DR,4348,4761,11631,01.178,551
2023-03-23T22:41:42,42.805,6.029,CST-1368DR,4348,4763,11635,01.177,551
2023-03-23T22:44:44,42.805,6.029,CST-1368DR,4348,4751,11605,01.187,551
2023-03-23T22:47:45,42.805,6.029,CST-1368DR,4348,4753,11610,01.186,551
2023-03-23T22:50:47,42.805,6.029,CST-1368DR,4348,4749,11601,01.189,551
2023-03-23T22:53:49,42.805,6.029,CST-1368DR,4348,4753,11610,01.186,551
2023-03-23T22:56:50,42.805,6.029,CST-1368DR,4348,4767,11645,01.174,551
2023-03-23T22:59:52,42.805,6.029,CST-1368DR,4348,4753,11610,01.186,551
2023-03-23T23:02:53,42.805,6.029,CST-1368DR,4348,4752,11609,01.186,551
2023-03-23T23:05:55,42.805,6.029,CST-1368DR,4348,4748,11598,01.190,551
2023-03-23T23:08:56,42.805,6.029,CST-1368DR,4348,4758,11623,01.181,551
2023-03-23T23:11:58,42.805,6.029,CST-1368DR,4348,4747,11595,01.191,551
2023-03-23T23:15:00,42.805,6.029,CST-1368DR,4348,4743,11585,01.194,551
2023-03-23T23:18:01,42.805,6.029,CST-1368DR,4348,4752,11608,01.186,551
2023-03-23T23:21:03,42.805,6.029,CST-1368DR,4348,4753,11611,01.185,551
2023-03-23T23:24:04,42.805,6.029,CST-1368DR,4348,4753,11610,01.186,551
2023-03-23T23:27:06,42.805,6.029,CST-1368DR,4348,4752,11607,01.187,551
2023-03-23T23:30:08,42.805,6.029,CST-1368DR,4348,4751,11606,01.187,551
2023-03-23T23:33:09,42.805,6.029,CST-1368DR,4348,4756,11619,01.183,551
2023-03-23T23:36:11,42.805,6.029,CST-1368DR,4348,4753,11610,01.186,551
2023-03-23T23:39:12,42.805,6.029,CST-1368DR,4348,4749,11601,01.189,551
2023-03-23T23:42:14,42.805,6.029,CST-1368DR,4348,4751,11606,01.187,551
2023-03-23T23:45:15,42.805,6.029,CST-1368DR,4348,4760,11627,01.180,551
2023-03-23T23:48:17,42.805,6.029,CST-1368DR,4348,4752,11609,01.186,551
2023-03-23T23:51:19,42.805,6.029,CST-1368DR,4348,4756,11618,01.183,551
2023-03-23T23:54:20,42.805,6.029,CST-1368DR,4348,4759,11626,01.180,551
2023-03-23T23:57:22,42.805,6.029,CST-1368DR,4348,4761,11631,01.178,551
